Fremont, MI

3:45 AM EDT on October 19, 2019 (GMT -0400)
Fremont

Weather History for KFFX - May, 2019

Change the Weather History Date:

Monday, May 6, 2019

  Actual Average (WUND) Record (WUND)
Temperature  
Mean Temperature 54 °F -  
Max Temperature 59 °F - - (-1)
Min Temperature 49 °F - - (-1)
Degree Days  
Heating Degree Days 11    
Growing Degree Days 4 (Base 50)    
Moisture  
Dew Point 49 °F    
Average Humidity 85    
Maximum Humidity 100    
Minimum Humidity 58    
Precipitation  
Precipitation 0.00 in - - ()
Sea Level Pressure  
Sea Level Pressure 29.98 in    
Wind  
Wind Speed 5 mph (NW)    
Max Wind Speed 10 mph    
Max Gust Speed -    
Visibility 10 miles    
Events Rain    
Averages and records for this station are not official NWS values.
T = Trace of Precipitation, MM = Missing Value Source: NWS Daily Summary

Daily Weather History Graph

Daily Weather History Graph

Search for Another Location

Airport or City:

Astronomy

May. 06, 2019 Rise Set
Actual Time 6:30 AM EDT 8:51 PM EDT
Civil Twilight 5:58 AM EDT 9:23 PM EDT
Nautical Twilight 5:19 AM EDT 10:03 PM EDT
Astronomical Twilight 4:35 AM EDT 10:47 PM EDT
Moon 7:51 AM EDT (5/6) 10:49 PM EDT (5/6)
Length of Visible Light 15h 24m
Length of Day
14h 21m
Waxing Crescent, 3% of the Moon is Illuminated
May 6
Waxing Crescent
May 11
First Quarter
May 18
Full
May 26
Last Quarter
Jun 3
New

Hourly Weather History & Observations

Time (EDT) Temp. Dew Point Humidity Pressure Visibility Wind Dir Wind Speed Gust Speed Precip Events Conditions
12:15 AM 56.5 °F 41.9 °F 58% 29.85 in 10.0 mi SSW 8.1 mph - N/A   Scattered Clouds
12:36 AM 57.0 °F 42.8 °F 59% 29.85 in 10.0 mi SW 8.1 mph - N/A   Clear
12:56 AM 56.5 °F 43.3 °F 61% 29.87 in 10.0 mi WSW 8.1 mph - N/A   Clear
1:16 AM 55.8 °F 44.6 °F 66% 29.87 in 10.0 mi SW 6.9 mph - N/A   Scattered Clouds
1:35 AM 55.0 °F 45.5 °F 70% 29.87 in 10.0 mi SW 5.8 mph - N/A   Mostly Cloudy
1:56 AM 54.5 °F 46.0 °F 73% 29.87 in 10.0 mi SW 5.8 mph - N/A   Scattered Clouds
2:15 AM 53.8 °F 46.4 °F 76% 29.87 in 10.0 mi SW 4.6 mph - N/A   Mostly Cloudy
2:36 AM 54.5 °F 46.4 °F 74% 29.88 in 10.0 mi WNW 3.5 mph - N/A   Overcast
2:56 AM 53.6 °F 46.8 °F 78% 29.87 in 10.0 mi Calm Calm - N/A   Mostly Cloudy
3:15 AM 52.9 °F 46.6 °F 79% 29.87 in 10.0 mi Calm Calm - N/A   Scattered Clouds
3:35 AM 51.8 °F 46.6 °F 82% 29.87 in 10.0 mi Calm Calm - N/A   Mostly Cloudy
3:56 AM 51.4 °F 46.8 °F 84% 29.88 in 10.0 mi Calm Calm - N/A   Overcast
4:15 AM 52.0 °F 47.3 °F 84% 29.88 in 10.0 mi Calm Calm - N/A   Mostly Cloudy
4:35 AM 50.9 °F 48.4 °F 91% 29.88 in 10.0 mi South 3.5 mph - N/A   Mostly Cloudy
4:56 AM 50.9 °F 48.2 °F 90% 29.88 in 10.0 mi South 3.5 mph - N/A   Scattered Clouds
5:16 AM 50.2 °F 48.7 °F 95% 29.90 in 10.0 mi SSW 3.5 mph - N/A   Clear
5:36 AM 50.7 °F 49.1 °F 94% 29.89 in 10.0 mi Calm Calm - N/A   Clear
5:56 AM 50.5 °F 49.1 °F 95% 29.90 in 10.0 mi Calm Calm - N/A   Clear
6:15 AM 50.5 °F 49.3 °F 95% 29.90 in 10.0 mi Calm Calm - N/A   Mostly Cloudy
6:35 AM 50.0 °F 49.1 °F 97% 29.91 in 10.0 mi Calm Calm - N/A   Mostly Cloudy
6:56 AM 50.9 °F 49.5 °F 95% 29.92 in 10.0 mi Calm Calm - N/A   Scattered Clouds
7:15 AM 51.1 °F 49.6 °F 95% 29.93 in 10.0 mi SSW 3.5 mph - N/A   Mostly Cloudy
7:35 AM 51.6 °F 50.0 °F 94% 29.94 in 10.0 mi South 4.6 mph - N/A   Overcast
7:56 AM 51.8 °F 50.2 °F 94% 29.95 in 10.0 mi South 5.8 mph - N/A   Overcast
8:16 AM 51.8 °F 50.4 °F 95% 29.95 in 10.0 mi SSW 4.6 mph - N/A   Scattered Clouds
8:35 AM 53.1 °F 50.9 °F 92% 29.95 in 10.0 mi SSW 5.8 mph - N/A   Mostly Cloudy
8:56 AM 53.8 °F 51.4 °F 92% 29.95 in 10.0 mi South 3.5 mph - N/A   Mostly Cloudy
9:16 AM 55.4 °F 50.9 °F 85% 29.95 in 10.0 mi South 4.6 mph - N/A   Mostly Cloudy
9:35 AM 56.7 °F 51.1 °F 82% 29.96 in 10.0 mi SSW 4.6 mph - N/A   Mostly Cloudy
9:56 AM 58.6 °F 51.3 °F 76% 29.96 in 10.0 mi SW 5.8 mph - N/A   Overcast
10:16 AM 59.0 °F 50.7 °F 74% 29.96 in 10.0 mi SSW 5.8 mph - N/A   Overcast
10:35 AM 59.0 °F 50.2 °F 73% 29.97 in 10.0 mi SW 5.8 mph - N/A Rain Rain
10:56 AM 57.4 °F 53.6 °F 87% 29.98 in 7.0 mi West 5.8 mph - N/A Rain Light Rain
11:16 AM 56.3 °F 54.5 °F 94% 29.98 in 10.0 mi WNW 5.8 mph - N/A Rain Light Rain
11:36 AM 55.4 °F 53.6 °F 94% 29.98 in 7.0 mi NNW 5.8 mph - N/A Rain Light Rain
11:55 AM 54.7 °F 53.6 °F 96% 29.99 in 10.0 mi NNW 6.9 mph - N/A Rain Light Rain
12:15 PM 54.0 °F 53.6 °F 99% 30.00 in 10.0 mi NNW 6.9 mph - N/A Rain Light Rain
12:36 PM 53.1 °F 52.9 °F 99% 30.00 in 5.0 mi NNW 5.8 mph - N/A Rain Rain
12:55 PM 52.9 °F 52.7 °F 99% 30.01 in 5.0 mi NNW 3.5 mph - N/A Rain Light Rain
1:15 PM 53.1 °F 53.1 °F 100% 30.00 in 4.0 mi NNE 4.6 mph - N/A Rain Rain
1:36 PM 53.2 °F 52.9 °F 99% 30.01 in 7.0 mi Calm Calm - N/A   Light Drizzle
1:55 PM 54.3 °F 53.2 °F 96% 30.01 in 10.0 mi NNE 3.5 mph - N/A   Overcast
2:15 PM 56.1 °F 54.7 °F 95% 30.00 in 10.0 mi ENE 4.6 mph - N/A   Overcast
2:36 PM 56.3 °F 52.5 °F 87% 30.01 in 10.0 mi Calm Calm - N/A   Overcast
2:55 PM 57.0 °F 51.8 °F 83% 30.02 in 10.0 mi Calm Calm - N/A   Overcast
3:15 PM 58.1 °F 52.5 °F 82% 30.03 in 10.0 mi Calm Calm - N/A   Overcast
3:35 PM 58.1 °F 52.0 °F 80% 30.03 in 10.0 mi Calm Calm - N/A   Overcast
3:55 PM 57.6 °F 52.9 °F 84% 30.02 in 10.0 mi North 3.5 mph - N/A   Overcast
4:15 PM 58.1 °F 52.9 °F 83% 30.02 in 10.0 mi North 3.5 mph - N/A   Overcast
4:35 PM 58.1 °F 53.1 °F 83% 30.02 in 10.0 mi North 5.8 mph - N/A   Overcast
4:56 PM 57.9 °F 52.7 °F 83% 30.02 in 10.0 mi North 8.1 mph - N/A   Overcast
5:15 PM 57.2 °F 52.9 °F 85% 30.02 in 10.0 mi North 10.4 mph - N/A   Overcast
5:35 PM 55.8 °F 51.8 °F 87% 30.02 in 10.0 mi North 8.1 mph - N/A   Overcast
5:56 PM 55.6 °F 51.8 °F 87% 30.03 in 10.0 mi North 9.2 mph - N/A   Overcast
6:15 PM 55.4 °F 51.6 °F 87% 30.03 in 10.0 mi NE 6.9 mph - N/A   Overcast
6:35 PM 55.0 °F 50.9 °F 86% 30.03 in 10.0 mi NNE 8.1 mph - N/A   Overcast
6:56 PM 55.2 °F 50.2 °F 83% 30.03 in 10.0 mi North 6.9 mph - N/A   Overcast
7:15 PM 55.2 °F 50.0 °F 83% 30.04 in 10.0 mi North 4.6 mph - N/A   Overcast
7:35 PM 55.4 °F 49.5 °F 80% 30.04 in 10.0 mi NNE 5.8 mph - N/A   Overcast
7:56 PM 55.0 °F 48.9 °F 80% 30.03 in 10.0 mi NE 4.6 mph - N/A   Overcast
8:16 PM 54.7 °F 49.5 °F 83% 30.04 in 10.0 mi Calm Calm - N/A   Overcast
8:35 PM 54.5 °F 50.0 °F 85% 30.05 in 10.0 mi Calm Calm - N/A   Overcast
8:56 PM 54.5 °F 49.8 °F 84% 30.07 in 10.0 mi Calm Calm - N/A   Overcast
9:15 PM 53.8 °F 51.3 °F 91% 30.08 in 10.0 mi Calm Calm - N/A   Overcast
9:36 PM 53.8 °F 47.1 °F 78% 30.10 in 10.0 mi NNW 5.8 mph - N/A   Overcast
9:56 PM 53.1 °F 45.9 °F 77% 30.11 in 10.0 mi NNW 5.8 mph - N/A   Overcast
10:16 PM 51.8 °F 43.0 °F 72% 30.11 in 10.0 mi North 8.1 mph - N/A   Overcast
10:35 PM 51.1 °F 43.0 °F 74% 30.11 in 10.0 mi North 4.6 mph - N/A   Mostly Cloudy
10:55 PM 50.4 °F 43.3 °F 77% 30.11 in 10.0 mi North 4.6 mph - N/A   Scattered Clouds
11:16 PM 49.8 °F 43.2 °F 78% 30.11 in 10.0 mi North 3.5 mph - N/A   Scattered Clouds
11:36 PM 49.6 °F 43.0 °F 78% 30.11 in 10.0 mi NNE 3.5 mph - N/A   Scattered Clouds
11:55 PM 49.6 °F 43.7 °F 80% 30.11 in 10.0 mi NNE 4.6 mph - N/A   Scattered Clouds